sat.trackr.live / text

‹ back to catalog

STARLINK-3935

NORAD 52549 · 2022-051S

PAYLOAD ACTIVE UNKNOWN

§ Identity

Operator
Country
US
Launch date
2022-05-13
Launch site
AFWTR
Launch vehicle
Mass (kg)
RCS (m²)

Purposes: comms

External: N2YO · Heavens-Above · Gunter

§ Orbital elements

Epoch: 2026-05-24T17:17:37.198752Z

Period
95.44 min
Inclination
53.2130°
Eccentricity
0.0001086
Mean motion
15.08840348 rev/d
Perigee alt
539.0 km
Apogee alt
540.5 km
Semi-major
6,917.9 km
B*
-1.2950e-5
RAAN
147.8048°
Arg perigee
70.4120°
Mean anomaly
289.6989°
Rev number
22,292

§ Raw data

STARLINK-39351 52549U 22051S   26144.72056943 -.00000494  00000+0 -12950-4 0  99972 52549  53.2130 147.8048 0001086  70.4120 289.6989 15.08840348222921

JSON: /api/v1/satellites/52549 · /tle

For live sub-satellite position, see the globe view (requires WebGL).

§ Visibility from observer

Set your observer location to see the next 7 days of passes ≥ 10°. The values pass through the URL so the page stays shareable.

No JS? Fill the form by hand. The geolocation button needs JavaScript.